Weather History for Indian Springs, NV

Change the Weather History Date:

Sunday, March 25, 2012

  Actual Average (KDRA) Record (KDRA)
Temperature  
Mean Temperature 56 °F -  
Max Temperature 73 °F 68 °F 80 °F (2014)
Min Temperature 39 °F 42 °F 34 °F (2005)
Degree Days  
Heating Degree Days 9    
Growing Degree Days 6 (Base 50)    
Moisture  
Dew Point 26 °F    
Average Humidity 37    
Maximum Humidity 87    
Minimum Humidity 13    
Precipitation  
Precipitation 0.09 in - - ()
Sea Level Pressure  
Sea Level Pressure 29.64 in    
Wind  
Wind Speed 16 mph (SSW)    
Max Wind Speed 46 mph    
Max Gust Speed 54 mph    
Visibility 10 miles    
Events Rain    
Averages and records for this station are not official NWS values.
T = Trace of Precipitation, MM = Missing Value Source: NWS Daily Summary

Daily Weather History Graph

Daily Weather History Graph

Search for Another Location

Airport:

Trip Planner

Search our weather history database for the weather conditions in past years. The results will help you decide how hot, cold, wet, or windy it might be!

Date:

Astronomy

Mar. 25, 2012 Rise Set
Actual Time 6:38 AM PDT 6:59 PM PDT
Civil Twilight 6:12 AM PDT 7:25 PM PDT
Nautical Twilight 5:41 AM PDT 7:55 PM PDT
Astronomical Twilight 5:11 AM PDT 8:26 PM PDT
Moon 7:59 AM PDT (3/25) 10:12 PM PDT (3/25)
Length of Visible Light 13h 13m
Length of Day
12h 21m
Waxing Crescent, 9% of the Moon is Illuminated
Mar 25
Waxing Crescent
Mar 30
First Quarter
Apr 6
Full
Apr 13
Last Quarter
Apr 21
New

Hourly Weather History & Observations

Time (PDT) Temp. Windchill Dew Point Humidity Pressure Visibility Wind Dir Wind Speed Gust Speed Precip Events Conditions
12:55 AM 59.0 °F - 22.3 °F 24% 29.72 in 10.0 mi Calm Calm - N/A   Clear
1:55 AM 55.4 °F - 22.3 °F 28% 29.72 in 10.0 mi NNW 6.9 mph - N/A   Clear
2:55 AM 55.8 °F - 21.9 °F 27% 29.70 in 10.0 mi West 5.8 mph - N/A   Clear
3:55 AM 58.8 °F - 22.1 °F 24% 29.68 in 10.0 mi Calm Calm - N/A   Clear
4:55 AM 57.9 °F - 22.8 °F 26% 29.68 in 10.0 mi WSW 11.5 mph - N/A   Clear
5:55 AM 59.5 °F - 23.2 °F 25% 29.67 in 10.0 mi WSW 9.2 mph - N/A   Clear
6:55 AM 58.6 °F - 24.1 °F 27% 29.68 in 10.0 mi Variable 3.5 mph - N/A   Clear
7:55 AM 54.0 °F - 25.3 °F 33% 29.70 in 10.0 mi NW 5.8 mph - N/A   Clear
8:55 AM 61.2 °F - 25.5 °F 26% 29.67 in 10.0 mi Variable 5.8 mph - N/A   Clear
9:55 AM 64.4 °F - 26.2 °F 24% 29.64 in 10.0 mi ESE 26.5 mph 35.7 mph N/A   Clear
10:55 AM 66.7 °F - 26.1 °F 22% 29.64 in 10.0 mi ESE 28.8 mph 38.0 mph N/A   Scattered Clouds
11:55 AM 68.7 °F - 27.0 °F 21% 29.62 in 10.0 mi ESE 32.2 mph 40.3 mph N/A   Clear
12:55 PM 70.2 °F - 27.3 °F 20% 29.60 in 10.0 mi ESE 27.6 mph 43.7 mph N/A   Mostly Cloudy
1:55 PM 72.7 °F - 26.2 °F 18% 29.57 in 10.0 mi ESE 25.3 mph 34.5 mph N/A   Clear
2:55 PM 72.0 °F - 22.3 °F 15% 29.54 in 10.0 mi ESE 29.9 mph 42.6 mph N/A   Partly Cloudy
3:55 PM 73.0 °F - 23.2 °F 15% 29.51 in 10.0 mi SE 28.8 mph 36.8 mph N/A   Partly Cloudy
4:55 PM 72.1 °F - 20.1 °F 14% 29.51 in 10.0 mi SSE 27.6 mph 34.5 mph N/A   Clear
5:55 PM 69.8 °F - 17.2 °F 13% 29.51 in 10.0 mi SSE 25.3 mph 34.5 mph N/A   Clear
6:55 PM 66.6 °F - 19.4 °F 17% 29.52 in 10.0 mi SE 18.4 mph 32.2 mph N/A   Partly Cloudy
7:55 PM 64.4 °F - 15.4 °F 15% 29.55 in 10.0 mi SSE 20.7 mph 34.5 mph N/A   Clear
8:55 PM 62.6 °F - 16.0 °F 16% 29.55 in 10.0 mi South 9.2 mph - N/A   Clear
9:55 PM 55.9 °F - 33.6 °F 43% 29.60 in 9.0 mi SW 38.0 mph 48.3 mph N/A   Partly Cloudy
10:04 PM 51.8 °F - 33.8 °F 50% 29.62 in 9.0 mi SW 40.3 mph 54.1 mph N/A Rain Light Rain
10:14 PM 46.4 °F 36.0 °F 33.8 °F 62% 29.65 in 10.0 mi SW 39.1 mph 51.8 mph N/A   Partly Cloudy
10:23 PM 46.4 °F 35.6 °F 32.0 °F 57% 29.67 in 10.0 mi SW 42.6 mph 49.5 mph N/A Rain Light Rain
10:42 PM 42.8 °F 30.5 °F 32.0 °F 66% 29.67 in 9.0 mi SW 42.6 mph 54.1 mph N/A Rain Light Rain
10:51 PM 41.0 °F 27.6 °F 33.8 °F 76% 29.69 in 8.0 mi SW 46.0 mph 54.1 mph N/A Rain Light Rain
10:55 PM 41.4 °F 29.1 °F 34.7 °F 77% 29.71 in 7.0 mi SW 38.0 mph 50.6 mph 0.06 in Rain Light Rain
11:12 PM 39.2 °F 26.0 °F 35.6 °F 87% 29.72 in 6.0 mi SW 39.1 mph 52.9 mph N/A   Overcast
11:38 PM 41.0 °F 33.9 °F 33.8 °F 76% 29.71 in 10.0 mi SW 12.7 mph 23.0 mph N/A Rain Light Rain
11:39 PM 41.0 °F 34.3 °F 33.8 °F 76% 29.71 in 10.0 mi SW 11.5 mph 23.0 mph N/A   Scattered Clouds
11:55 PM 41.5 °F 35.9 °F 33.1 °F 72% 29.70 in 10.0 mi West 9.2 mph - 0.03 in   Clear